Location: Clanezzo
(45.7500°N, 9.6000°E)
Time: 16:26:44
(UTC+00:00)

Envisat - Pass Details

Date: 21 January 2022
Orbit: 764 x 765 km, 98.2° (Epoch: 19 May)

Event Time Altitude Azimuth Distance (km) Brightness Sun altitude
Rises 04:02:42 0° 16° (NNE) 3,241 6.5 -29.7°
Reaches altitude 10° 04:05:03 10° 20° (NNE) 2,310 5.7 -29.3°
Maximum altitude 04:10:05 60° 101° (E) 874 3.4 -28.4°
Drops below altitude 10° 04:15:05 10° 181° (S) 2,294 5.4 -27.5°
Sets 04:17:25 0° 185° (S) 3,216 6.2 -27.1°
